Haleyville, AL

1:12 PM CDT on October 01, 2016 (GMT -0500)
Haleyville

Weather History for K1M4 - April, 2013

Change the Weather History Date:

Tuesday, April 30, 2013

  Actual Average (KJFX) Record (KJFX)
Temperature  
Mean Temperature 62 °F -  
Max Temperature 79 °F 77 °F 87 °F (1962)
Min Temperature 45 °F 50 °F 34 °F (1992)
Degree Days  
Heating Degree Days 3    
Growing Degree Days 12 (Base 50)    
Moisture  
Dew Point 52 °F    
Average Humidity 74    
Maximum Humidity 100    
Minimum Humidity 32    
Precipitation  
Precipitation 0.00 in - - ()
Sea Level Pressure  
Sea Level Pressure 30.05 in    
Wind  
Wind Speed 1 mph (SE)    
Max Wind Speed 8 mph    
Max Gust Speed -    
Visibility 9 miles    
Events      
Averages and records for this station are not official NWS values.
T = Trace of Precipitation, MM = Missing Value Source: NWS Daily Summary

Daily Weather History Graph

Daily Weather History Graph

Search for Another Location

Airport or City:

Trip Planner

Search our weather history database for the weather conditions in past years. The results will help you decide how hot, cold, wet, or windy it might be!

Date:

Astronomy

Apr. 30, 2013 Rise Set
Actual Time 6:01 AM CDT 7:34 PM CDT
Civil Twilight 5:34 AM CDT 8:00 PM CDT
Nautical Twilight 5:02 AM CDT 8:33 PM CDT
Astronomical Twilight 4:29 AM CDT 9:06 PM CDT
Moon No Moon Rise 10:32 AM CDT (4/30)
Length of Visible Light 14h 26m
Length of Day
13h 32m
Waning Gibbous, 70% of the Moon is Illuminated
Apr 30
Waning Gibbous
May 2
Last Quarter
May 9
New
May 17
First Quarter
May 24
Full

Hourly Weather History & Observations

Time (CDT) Temp. Dew Point Humidity Pressure Visibility Wind Dir Wind Speed Gust Speed Precip Events Conditions
12:56 AM 50.9 °F 50.9 °F 100% 30.03 in 7.0 mi Calm Calm - N/A   Clear
1:56 AM 50.0 °F 50.0 °F 100% 30.02 in 4.0 mi Calm Calm - N/A   Clear
2:29 AM 48.2 °F 48.2 °F 100% 29.98 in 2.5 mi Calm Calm - N/A   Clear
2:37 AM 48.2 °F 48.2 °F 100% 29.98 in 6.0 mi Calm Calm - N/A   Clear
2:56 AM 47.8 °F 47.8 °F 100% 30.01 in 5.0 mi Calm Calm - N/A   Clear
3:56 AM 47.8 °F 47.8 °F 100% 30.02 in 5.0 mi Calm Calm - N/A   Clear
4:56 AM 46.9 °F 46.9 °F 100% 30.03 in 7.0 mi Calm Calm - N/A   Clear
5:56 AM 45.0 °F 45.0 °F 100% 30.04 in 7.0 mi Calm Calm - N/A   Clear
6:56 AM 47.8 °F 47.8 °F 100% 30.06 in 9.0 mi Calm Calm - N/A   Clear
7:56 AM 57.9 °F 56.8 °F 96% 30.08 in 10.0 mi Calm Calm - N/A   Clear
8:56 AM 65.8 °F 54.0 °F 65% 30.09 in 10.0 mi SSE 3.5 mph - N/A   Clear
9:56 AM 70.0 °F 54.9 °F 59% 30.09 in 10.0 mi Variable 4.6 mph - N/A   Clear
10:56 AM 72.0 °F 54.0 °F 53% 30.08 in 10.0 mi Variable 3.5 mph - N/A   Clear
11:56 AM 73.9 °F 52.9 °F 48% 30.08 in 10.0 mi ESE 8.1 mph - N/A   Partly Cloudy
12:56 PM 75.9 °F 54.0 °F 46% 30.07 in 10.0 mi East 6.9 mph - N/A   Clear
1:56 PM 77.9 °F 48.9 °F 36% 30.06 in 10.0 mi Calm Calm - N/A   Clear
2:56 PM 79.9 °F 48.9 °F 34% 30.04 in 10.0 mi Calm Calm - N/A   Clear
3:56 PM 79.9 °F 47.8 °F 32% 30.02 in 10.0 mi South 8.1 mph - N/A   Clear
4:56 PM 77.9 °F 47.8 °F 35% 30.03 in 10.0 mi SSE 5.8 mph - N/A   Clear
5:56 PM 77.0 °F 52.0 °F 42% 30.03 in 10.0 mi Calm Calm - N/A   Clear
6:56 PM 70.9 °F 57.9 °F 63% 30.03 in 10.0 mi Calm Calm - N/A   Clear
7:56 PM 63.9 °F 59.0 °F 84% 30.05 in 10.0 mi Calm Calm - N/A   Clear
8:56 PM 61.9 °F 57.9 °F 87% 30.06 in 10.0 mi Calm Calm - N/A   Clear
9:56 PM 59.9 °F 57.9 °F 93% 30.08 in 10.0 mi Calm Calm - N/A   Clear
10:56 PM 61.0 °F 55.9 °F 83% 30.08 in 10.0 mi Calm Calm - N/A   Partly Cloudy
11:56 PM 63.0 °F 54.9 °F 75% 30.09 in 10.0 mi Calm Calm - N/A   Clear